Погода в Беджая

Алжир     36°44′25″N   5°02′54″E
темп.,
°C
ветер,
м/с
пор.,
м/с
влажн.,
%
обл.,
%
осадки,
мм/ч
давл.,
гПа
погр.,
м
19 мая, ср
ср1901:00+18ююз22645 0.0 101812
04:00+18з11625 0.0 101812
07:00+17ююз007768 0.0 1020130
10:00+21св215948 0.0 1020443
13:00+21св43635 0.0 1020628
16:00+19св436892 0.0 1021711
19:00+17всв3479100 0.0 1022750
22:00+16всв3382100 0.1 1023581
20 мая, чт
чт2001:00+16в347972 0.1 1024731
04:00+15в347653 0.1 1024638
07:00+15вюв13715 0.1 1024425
10:00+18в34604 0.0 1024790
13:00+19всв445848 0.0 1024794
16:00+18в445967 0.0 1023715
19:00+16в356785 0.0 1023599
22:00+14ююв127820 0.0 1024177
21 мая, пт
пт2101:00+13юз227641 0.0 102149
04:00+13ю117553 0.0 102059
07:00+17ююз116438 0.0 101990
10:00+22всв335327 0.0 1018467
13:00+24всв435162 0.0 1017385
16:00+24всв33525 0.0 1015319
19:00+21в226978 0.0 101362
22:00+23ююз444437 0.0 101245
22 мая, сб
сб2201:00+22юз554375 0.0 101154
04:00+21ююз3448100 0.0 101149
07:00+21з2362100 0.0 101460
10:00+23ссв2261100 0.0 1015423
13:00+24ссв32626 0.0 1015419
16:00+22ссв33676 0.0 1014364
19:00+20в117344 0.0 1015145
22:00+18ююв11825 0.0 101614
23 мая, вс
вс2301:00+18ю1177100 0.0 101616
04:00+17ссв2282100 0.0 101726
07:00+17всв1188100 0.0 1018181
10:00+19всв3386100 0.1 1020561
13:00+18всв448895 0.3 1021452
16:00+17в348152 0.0 1020457
19:00+17в238239 0.0 1020401
22:00+15юв128921 0.0 1021155